Powrót do katalogu

STARLINK-11077

AktywnyŁącznośćVLEO
NORAD 58707·PAYLOAD·🇺🇸 United States

Wystrzelony Jan 3, 2024 z Vandenberg Space Force Base

Loading…

Następne Przeloty (najbliższe 24 godziny)

TLE

ŚwieżeSource: CelesTrak SupGP

Epoka: Sep 15, 2026, 03:10 UTC

1 58707C 24002C   26258.13243056 -.00067473  00000+0 -55550-3 0  2581
2 58707  53.1566  60.2305 0000997  80.9193 148.5284 15.69755959    10

Śledź STARLINK-11077 w czasie rzeczywistym z AllMySat

Download on the App Store